Weather History for MMMZ - January, 2013

Change the Weather History Date:

Tuesday, January 1, 2013

  Actual Average Record
Temperature  
Mean Temperature 64 °F -  
Max Temperature 69 °F 79 °F 87 °F (1998)
Min Temperature 59 °F 51 °F 41 °F (2001)
Degree Days  
Heating Degree Days 1    
Growing Degree Days 14 (Base 50)    
Moisture  
Dew Point 60 °F    
Average Humidity 86    
Maximum Humidity 94    
Minimum Humidity 73    
Precipitation  
Precipitation 0.00 in - - ()
Sea Level Pressure  
Sea Level Pressure 29.90 in    
Wind  
Wind Speed 6 mph ()    
Max Wind Speed 9 mph    
Max Gust Speed -    
Visibility 11.5 miles    
Events      
Averages and records for this station are not official NWS values.
T = Trace of Precipitation, MM = Missing Value Source: Averaged Metar Reports

Daily Weather History Graph

Daily Weather History Graph

Search for Another Location

Airport or City:

Trip Planner

Search our weather history database for the weather conditions in past years. The results will help you decide how hot, cold, wet, or windy it might be!

Date:

Astronomy

Jan. 01, 2013 Rise Set
Actual Time 6:46 AM MST 5:31 PM MST
Civil Twilight 6:21 AM MST 5:55 PM MST
Nautical Twilight 5:53 AM MST 6:23 PM MST
Astronomical Twilight 5:26 AM MST 6:51 PM MST
Moon 9:32 PM MST (1/1) 9:29 AM MST (1/1)
Length of Visible Light 11h 33m
Length of Day
10h 44m
Waning Gibbous, 83% of the Moon is Illuminated
Jan 1
Waning Gibbous
Jan 4
Last Quarter
Jan 11
New
Jan 18
First Quarter
Jan 26
Full

Hourly Weather History & Observations

Time (MST) Temp. Dew Point Humidity Pressure Visibility Wind Dir Wind Speed Gust Speed Precip Events Conditions
12:44 AM 60.8 °F 57.2 °F 88% 29.98 in 10.0 mi NNW 6.9 mph - N/A   Mostly Cloudy
1:46 AM 60.8 °F 57.2 °F 88% 29.98 in 10.0 mi North 6.9 mph - N/A   Mostly Cloudy
2:47 AM 60.8 °F 57.2 °F 88% 29.96 in 10.0 mi North 6.9 mph - N/A   Mostly Cloudy
3:41 AM 60.8 °F 57.2 °F 88% 29.93 in 10.0 mi NNW 9.2 mph - N/A   Scattered Clouds
4:49 AM 60.8 °F 57.2 °F 88% 29.91 in 10.0 mi North 8.1 mph - N/A   Mostly Cloudy
5:47 AM 59.0 °F 55.4 °F 88% 29.90 in 10.0 mi North 6.9 mph - N/A   Overcast
6:43 AM 59.0 °F 53.6 °F 82% 29.91 in 12.0 mi NNW 8.1 mph - N/A   Overcast
7:45 AM 60.8 °F 57.2 °F 88% 29.92 in 12.0 mi NE 6.9 mph - N/A   Overcast
8:46 AM 62.6 °F 59.0 °F 88% 29.91 in 14.0 mi North 8.1 mph - N/A   Overcast
9:44 AM 64.4 °F 60.8 °F 88% 29.93 in 12.0 mi Calm Calm - N/A   Overcast
10:46 AM 66.2 °F 60.8 °F 83% 29.91 in 14.0 mi NE 8.1 mph - N/A   Overcast
11:47 AM 66.2 °F 60.8 °F 83% 29.91 in 14.0 mi ENE 6.9 mph - N/A   Overcast
12:48 PM 69.8 °F 62.6 °F 78% 29.88 in 14.0 mi NNW 6.9 mph - N/A   Overcast
1:42 PM 69.8 °F 60.8 °F 73% 29.87 in 14.0 mi NNW 6.9 mph - N/A   Overcast
2:40 PM 69.8 °F 62.6 °F 78% 29.86 in 15.0 mi South 5.8 mph - N/A   Overcast
3:41 PM 69.8 °F 62.6 °F 78% 29.87 in 14.0 mi SE 5.8 mph - N/A   Overcast
4:40 PM 68.0 °F 62.6 °F 83% 29.86 in 10.0 mi ESE 6.9 mph - N/A   Overcast
5:42 PM 66.2 °F 62.6 °F 88% 29.86 in 10.0 mi East 5.8 mph - N/A   Overcast
6:40 PM 66.2 °F 60.8 °F 83% 29.88 in 10.0 mi ESE 6.9 mph - N/A   Overcast
7:46 PM 64.4 °F 62.6 °F 94% 29.89 in 10.0 mi Calm Calm - N/A   Overcast
8:50 PM 64.4 °F 62.6 °F 94% 29.89 in 10.0 mi NW 6.9 mph - N/A   Overcast
9:42 PM 64.4 °F 60.8 °F 88% 29.89 in 10.0 mi North 6.9 mph - N/A   Overcast
10:40 PM 64.4 °F 62.6 °F 94% 29.90 in 10.0 mi NW 4.6 mph - N/A   Overcast
11:51 PM 64.4 °F 60.8 °F 88% 29.86 in 10.0 mi North 8.1 mph - N/A   Overcast